Theta_e
284 284 285 285 285 286 286 286 286 285 285 284 284 283 284 284 285 284 286 285 287 287 286 285 286 286 286 286 286 285 285 285 285 285 286 287 287 288 288 288 288 288 288 288 288 289 288 287 288 288 288 287 288 287 288 286 286 286 286 286 286 287
285 284 284 284 284 285 286 286 285 284 284 283 283 283 283 283 284 284 285 286 286 286 285 284 285 285 285 285 285 285 285 285 285 285 285 286 286 286 286 286 286 287 286 287 287 287 287 287 287 288 288 288 288 288 288 287 286 286 286 286 286 287
286 285 285 286 285 285 285 285 285 284 284 284 285 284 283 283 283 283 283 284 284 282 282 283 283 284 284 284 284 284 284 284 285 285 285 286 286 286 286 285 286 286 286 286 287 286 287 286 287 287 286 287 287 287 286 286 286 286 286 286 286 285
285 284 284 284 284 284 283 283 283 282 281 282 283 283 283 282 283 283 283 283 283 281 282 282 282 283 283 282 283 283 283 284 284 285 285 285 286 286 286 286 285 285 286 286 286 287 288 288 287 286 286 287 286 286 287 287 286 286 285 285 285 285
284 284 283 283 283 284 283 282 282 281 281 280 281 281 281 281 282 282 283 282 282 282 281 281 281 281 280 280 281 281 282 283 283 284 284 284 285 285 285 285 285 285 285 285 285 285 286 287 287 287 287 287 286 286 286 286 285 285 285 285 285 285
284 283 284 285 284 284 283 283 283 282 282 281 280 280 280 281 281 282 282 282 281 281 280 281 280 281 280 280 280 281 281 282 282 283 283 283 284 284 285 285 285 285 285 285 285 285 285 285 285 285 286 286 286 286 286 285 285 285 285 285 285 284
283 284 284 284 283 283 283 283 282 282 281 281 280 280 280 281 281 281 281 280 280 280 280 280 280 280 280 280 280 280 280 281 282 282 282 282 282 283 283 284 284 285 285 285 285 285 285 285 284 284 284 285 285 286 286 286 285 285 285 285 285 286
284 283 283 283 283 283 282 282 281 281 281 280 281 280 280 280 281 281 281 280 280 280 279 279 279 279 279 279 279 279 280 280 280 281 282 281 282 282 282 282 283 283 284 284 284 284 284 284 284 284 284 284 284 285 285 285 285 285 285 285 285 285
281 282 282 282 282 282 282 282 281 281 281 280 280 280 280 279 280 280 279 280 278 279 278 278 278 279 279 279 279 280 279 279 279 280 281 281 281 281 281 281 281 282 283 283 284 284 284 284 284 284 284 284 284 284 284 284 285 285 285 285 285 285
280 281 281 281 281 281 281 281 282 281 281 280 280 280 280 281 280 279 279 279 278 278 279 279 279 279 280 279 279 279 279 279 278 279 280 280 280 281 280 280 281 281 281 282 282 283 284 284 284 284 284 284 284 284 284 284 284 284 284 284 285 285
280 280 281 281 281 280 280 280 280 280 280 280 280 280 279 279 280 278 278 278 278 277 277 278 278 279 278 278 278 278 278 278 277 278 279 280 280 282 281 281 281 280 280 281 281 281 282 283 284 284 284 284 284 284 283 284 284 284 284 284 284 284
280 280 280 280 280 280 279 279 279 280 280 280 279 279 279 279 278 278 277 277 277 277 277 278 277 278 278 278 278 278 278 278 277 278 278 279 280 281 281 281 280 279 280 280 280 280 281 282 283 285 287 288 286 284 284 284 284 283 283 283 283 284
280 280 280 279 279 280 280 280 280 280 280 281 280 280 280 279 278 277 277 277 277 277 277 277 277 278 277 278 278 277 277 277 277 276 277 277 278 279 280 281 280 280 280 279 279 279 280 281 282 285 288 288 289 287 284 284 284 283 283 283 283 283
279 279 279 280 280 280 280 281 281 281 281 281 281 281 280 279 278 277 277 277 277 277 278 278 278 277 278 277 277 277 277 276 276 276 276 276 276 278 279 279 280 280 280 280 279 279 280 280 284 286 286 287 288 288 285 283 283 283 283 283 283 283
280 280 280 279 280 280 280 281 281 281 281 281 281 280 280 278 277 277 277 277 277 277 277 277 277 277 278 278 278 277 277 277 276 276 276 276 277 277 277 278 279 279 279 278 278 279 279 279 283 285 285 286 287 287 287 283 283 282 282 283 283 283
282 281 280 280 280 280 281 281 281 281 281 280 280 279 278 278 278 277 277 277 277 278 278 278 277 277 278 278 278 277 277 276 276 276 276 276 276 276 276 277 278 278 278 278 278 278 279 279 282 284 284 285 286 287 286 283 282 282 282 282 282 283
279 280 280 280 281 281 281 280 280 280 279 279 278 279 278 278 278 278 278 278 279 278 278 278 277 277 278 277 277 277 277 277 276 276 275 275 275 275 276 276 277 278 278 278 277 277 277 278 282 283 284 284 285 286 286 283 282 282 281 282 282 282
279 279 279 280 280 279 278 277 278 277 277 277 277 277 277 277 277 277 278 278 278 278 278 277 277 277 277 277 276 276 276 276 276 276 276 275 275 275 275 276 276 276 276 277 276 276 276 277 281 282 283 284 284 285 283 282 281 281 280 280 281 281
278 279 279 279 278 277 277 277 277 276 276 276 276 276 276 276 276 276 276 277 277 277 277 277 276 276 276 275 275 275 275 275 275 275 275 274 274 274 274 274 274 275 275 275 275 275 275 275 278 281 282 283 284 283 281 281 280 280 279 280 280 281
277 278 278 277 276 276 276 276 276 275 274 274 274 274 274 274 274 274 275 275 275 275 275 275 275 274 273 273 272 273 273 274 274 274 274 273 272 272 273 273 273 273 274 274 273 274 273 274 277 279 280 281 282 282 280 280 279 278 278 279 279 280
277 276 275 274 274 274 274 274 273 273 272 273 272 272 271 271 272 272 272 273 273 273 273 273 273 272 271 271 271 271 271 271 272 272 273 272 272 272 272 272 272 272 273 273 272 274 273 272 274 278 279 280 281 280 279 279 278 278 278 278 278 279
274 273 273 273 273 273 272 272 271 270 271 270 271 269 269 270 271 271 271 271 271 270 270 270 270 270 269 269 269 269 269 270 270 270 270 270 271 270 271 271 271 270 271 271 271 271 271 271 271 273 277 278 279 280 278 277 276 276 277 278 278 278
273 273 272 272 272 271 271 270 268 268 268 269 268 267 268 269 269 269 268 268 267 266 266 267 267 266 266 266 266 266 267 267 268 268 268 268 269 269 269 269 269 269 269 270 270 270 270 270 270 271 276 277 278 279 278 276 276 277 277 277 278 278
271 271 270 270 270 270 268 267 266 267 266 266 265 266 267 267 266 266 264 263 263 263 263 263 263 263 263 264 264 263 264 264 265 265 265 266 266 266 266 267 267 267 267 268 268 269 269 270 272 270 273 276 277 278 279 276 276 278 277 277 277 278
269 268 268 269 268 268 267 265 264 264 264 263 264 265 265 264 264 262 262 261 261 261 261 261 261 261 262 262 262 262 261 262 262 263 263 263 263 264 264 264 265 265 265 266 267 267 268 268 269 273 271 274 276 277 278 279 278 280 279 277 277 277
267 267 267 267 266 266 265 264 262 263 262 262 264 264 263 262 261 260 260 259 259 259 259 259 260 260 260 260 260 260 260 260 261 261 262 262 262 262 262 263 263 264 264 264 265 266 267 268 268 271 273 273 275 276 277 278 279 281 279 279 278 279
265 265 264 265 264 264 263 262 261 261 260 262 262 261 260 260 259 259 258 258 258 258 258 258 259 259 259 259 259 259 259 259 260 259 260 261 261 261 261 262 263 262 263 263 263 264 265 266 267 267 270 273 274 276 277 278 279 279 280 278 279 280
263 263 262 262 262 262 261 260 259 259 260 261 261 260 260 259 258 258 257 257 258 258 258 257 258 258 258 258 259 259 259 259 259 259 260 260 260 261 261 261 262 262 262 263 263 264 264 265 266 266 267 270 271 272 274 275 276 277 278 278 278 281
262 261 261 260 261 260 260 258 259 260 260 259 260 260 259 258 257 257 257 257 257 257 257 257 257 258 258 258 259 259 259 259 259 259 259 259 259 259 259 260 260 260 261 260 261 262 262 263 264 265 265 266 266 267 268 270 271 274 275 274 274 277
260 260 259 259 260 260 259 259 259 259 259 259 259 258 258 257 257 257 256 256 257 257 257 257 258 258 257 257 258 258 258 258 258 258 258 258 258 258 258 258 259 259 259 259 260 260 260 261 262 262 263 264 264 265 266 267 268 269 270 271 273 275
259 259 258 258 259 259 258 258 258 258 258 259 258 258 257 257 257 257 256 257 257 256 257 257 257 257 257 257 257 257 258 257 258 258 258 260 260 259 259 259 260 260 261 261 261 260 260 261 262 263 267 266 270 268 267 267 268 269 270 272 275 273
258 257 257 258 258 258 257 257 258 258 258 258 258 257 257 257 257 256 256 256 256 256 256 256 256 256 256 256 256 256 257 261 264 263 261 261 265 268 269 269 264 264 265 264 265 265 263 263 265 270 272 273 273 274 274 274 274 275 273 274 276 275
258 257 256 257 257 257 257 257 257 257 258 258 258 258 257 257 256 256 256 256 256 256 256 256 256 256 256 256 256 256 256 256 258 264 267 267 267 268 269 270 270 271 271 267 265 267 271 272 272 273 273 273 273 273 274 274 274 275 275 276 274 272
256 256 256 257 257 256 256 256 257 257 257 258 258 258 257 257 256 256 256 256 256 256 256 256 256 256 256 256 256 256 256 256 256 257 263 266 267 268 268 269 269 270 270 271 269 267 266 269 271 272 272 272 272 273 273 273 273 274 275 276 276 271
256 257 256 256 256 256 256 256 256 257 257 258 258 258 257 257 257 256 256 256 256 256 256 256 256 256 256 255 255 256 256 256 256 255 256 259 265 266 267 268 269 269 269 269 270 270 270 270 270 271 271 272 272 273 273 273 274 275 275 275 272 270
256 256 255 255 255 255 255 256 256 257 258 258 258 258 257 257 257 256 256 256 256 256 256 256 256 256 256 256 256 256 256 256 257 256 256 256 256 258 262 265 267 267 268 268 269 269 270 270 270 271 271 272 272 273 273 273 271 274 275 274 270 270
255 255 255 256 256 255 255 256 257 257 258 258 258 258 257 257 257 256 256 257 257 256 256 256 256 256 256 256 256 256 256 256 257 257 257 256 256 256 256 257 259 263 267 264 266 268 269 270 270 271 271 272 272 272 273 273 269 268 269 270 270 270
254 254 255 255 255 255 255 256 258 258 258 258 258 257 257 257 256 256 256 256 256 256 256 256 256 256 256 256 256 257 257 257 257 257 257 257 258 257 257 257 258 259 263 267 268 269 269 269 270 270 271 271 272 272 272 267 267 267 268 268 269 269
Wind_Speed
2 2 3 3 3 3 3 3 3 3 3 3 3 5 5 5 5 5 5 5 5 6 7 7 7 7 7 7 8 7 8 8 8 7 7 7 7 8 7 7 7 7 6 5 5 5 5 5 5 5 5 5 5 5 6 5 5 6 6 6 5 6
1 1 2 4 4 4 4 4 3 4 4 5 5 5 5 6 7 7 7 7 7 7 6 5 5 5 6 7 8 8 8 8 7 7 7 8 7 6 6 7 6 7 7 6 6 5 5 5 5 5 5 5 5 6 7 6 5 6 7 7 6 5
1 1 2 3 3 4 4 4 4 4 5 5 6 7 7 6 5 5 5 5 6 6 7 7 6 7 6 7 7 8 7 7 7 8 7 7 7 6 7 6 7 7 7 7 7 6 5 5 5 5 4 5 6 6 6 6 6 6 7 6 7 6
1 2 2 3 2 2 2 3 2 3 4 5 6 7 6 7 8 7 6 5 5 6 6 7 6 7 7 7 6 7 7 7 7 7 8 8 8 8 8 8 6 5 6 6 7 7 7 7 5 5 4 5 6 6 5 6 7 7 7 6 7 7
3 4 4 4 2 2 2 3 4 4 4 4 5 5 6 6 6 6 6 6 6 6 6 6 6 7 7 7 6 7 6 6 5 5 7 8 8 8 8 8 9 9 8 7 6 6 6 6 6 6 5 5 5 6 6 6 6 7 7 7 8 7
4 3 3 1 2 2 3 3 4 4 4 4 4 5 5 5 4 5 5 5 6 5 5 5 5 7 7 7 7 8 7 7 5 5 5 6 6 8 8 8 8 8 9 9 9 9 7 7 6 6 5 6 6 6 7 7 7 7 7 8 7 7
3 2 1 2 2 3 4 4 3 4 4 4 4 4 4 5 5 5 5 5 5 6 5 5 5 5 5 5 6 6 7 7 7 7 6 7 7 6 6 7 6 7 7 7 7 8 8 8 7 6 6 6 5 6 7 7 7 7 7 8 8 7
1 1 1 1 1 1 2 3 3 3 4 4 4 3 4 5 5 5 6 6 6 6 6 5 5 5 5 4 4 4 5 6 5 6 6 5 6 8 8 7 7 6 7 7 7 7 7 7 7 7 6 6 6 6 6 6 6 7 7 7 7 7
1 0 0 0 0 0 1 1 2 2 2 3 3 2 2 4 4 5 5 5 5 5 5 5 4 4 4 4 4 4 4 4 4 5 6 5 5 5 7 7 8 8 7 8 8 8 8 7 7 7 7 7 6 6 6 7 7 7 7 6 6 6
1 1 0 0 0 1 1 1 1 2 2 2 3 3 1 3 1 3 4 4 4 4 5 4 5 5 5 4 4 4 5 4 4 5 5 5 5 5 6 6 6 8 7 8 8 8 8 7 7 7 7 7 7 7 7 7 7 7 7 7 7 7
4 3 2 2 1 1 2 2 2 2 2 2 2 2 2 2 1 3 4 4 4 4 4 4 4 5 4 4 4 5 5 4 4 5 6 6 6 6 6 6 6 6 7 7 8 8 7 8 8 6 7 7 8 7 7 8 8 8 8 8 8 7
4 4 3 2 2 3 4 4 4 4 4 5 4 3 4 3 3 3 4 3 4 4 4 4 4 4 4 4 5 5 5 5 5 5 6 7 7 7 7 7 6 5 6 8 8 7 7 8 7 9 14 13 9 8 8 8 8 8 8 9 9 9
5 4 4 5 5 5 5 5 6 5 5 6 5 6 5 3 4 3 4 5 4 4 4 4 5 5 5 6 5 6 5 6 5 5 6 6 6 8 8 8 8 8 7 7 7 8 8 8 7 13 15 17 19 11 8 8 9 8 9 9 9 10
5 5 5 6 6 6 6 6 7 6 7 7 6 6 4 3 3 4 4 5 5 5 6 6 7 7 8 7 7 7 6 5 6 7 7 7 8 7 6 8 9 9 8 8 9 9 9 9 9 16 18 19 20 16 10 8 8 8 8 9 10 9
5 6 6 5 6 6 7 7 6 7 7 6 6 4 3 3 3 4 4 4 4 5 5 6 7 7 9 9 9 8 7 8 8 9 9 10 9 7 9 11 10 9 9 8 10 11 10 10 11 16 18 20 21 21 16 9 9 9 9 9 10 10
6 6 6 6 6 6 7 6 5 6 4 4 4 3 4 4 5 4 5 5 6 6 7 8 7 8 9 9 9 9 9 9 10 9 8 8 8 9 11 12 12 12 12 10 10 10 10 12 12 18 20 21 22 21 18 10 11 10 10 10 10 10
5 6 8 8 6 6 8 9 9 8 9 9 9 7 7 6 6 7 7 9 9 9 8 9 9 10 10 10 9 9 10 11 10 10 8 7 8 10 11 11 13 12 12 12 12 11 12 12 17 21 22 22 23 23 19 11 10 10 10 11 10 10
5 6 6 5 6 5 6 5 6 7 7 7 7 7 8 7 8 9 8 9 9 9 9 8 9 10 10 10 9 10 11 10 10 11 10 9 9 9 9 11 11 13 14 14 13 12 14 14 21 22 21 22 23 25 14 11 11 11 11 11 11 11
6 6 5 6 5 5 6 6 7 8 8 9 8 8 8 8 8 9 9 9 10 9 9 9 10 11 11 9 9 10 11 12 13 12 9 10 10 11 12 13 12 12 13 14 14 13 14 15 19 24 24 23 24 19 12 11 11 11 11 12 12 12
5 6 6 5 5 5 7 7 8 8 6 7 7 7 8 7 8 9 10 10 9 10 11 11 10 10 10 10 11 13 13 13 12 12 10 11 12 13 13 13 14 14 14 14 15 14 13 15 19 26 26 27 27 22 15 12 12 12 12 13 13 11
5 4 4 4 4 7 7 7 6 6 6 6 6 6 7 8 9 8 9 10 11 12 11 11 11 12 13 13 14 13 15 15 14 13 12 12 12 14 14 14 14 15 14 13 14 15 16 16 19 27 29 29 27 21 13 12 11 13 13 13 14 12
4 4 4 5 5 6 6 5 4 5 6 6 6 6 7 8 8 9 10 10 11 11 12 12 13 13 13 14 14 14 14 14 14 14 14 14 13 14 14 14 14 16 16 15 15 15 16 17 18 20 30 29 29 29 18 12 13 15 16 15 14 13
4 4 5 4 6 6 5 5 5 6 6 7 6 6 8 9 10 10 10 11 11 12 13 12 11 14 14 13 14 15 15 13 14 14 14 15 14 14 15 16 16 16 17 16 16 16 17 16 18 21 29 30 31 32 27 15 15 15 15 15 15 13
4 4 4 4 7 5 5 5 6 6 7 7 7 7 8 9 9 10 10 11 12 12 12 12 12 13 13 14 13 14 15 14 14 14 16 14 15 17 18 18 16 16 17 17 17 17 18 18 23 20 27 33 34 33 34 20 17 17 16 16 15 14
6 5 5 5 4 5 5 6 7 7 7 8 9 8 8 9 9 10 10 11 12 12 12 12 13 13 11 12 12 13 15 13 13 14 15 15 16 17 19 18 17 17 17 17 16 16 16 17 17 26 24 31 34 34 34 35 27 29 21 17 17 17
4 5 5 5 4 5 5 6 8 7 8 9 8 9 9 9 9 10 11 11 12 12 12 12 12 11 11 12 13 13 14 14 13 13 12 13 13 14 15 15 14 14 16 17 17 15 14 14 15 20 28 26 33 34 37 37 37 34 21 17 16 16
6 7 6 5 5 4 4 4 6 9 10 9 7 9 10 11 11 11 12 13 13 12 12 12 11 11 11 11 11 12 12 13 12 12 11 11 12 12 13 15 13 14 14 14 15 15 14 14 14 15 21 31 31 34 34 35 36 35 35 23 17 16
5 6 8 6 4 6 4 4 4 9 10 8 8 9 9 11 12 13 13 13 12 13 13 15 14 12 11 12 10 10 10 11 12 11 11 11 12 12 13 13 13 12 13 12 13 12 12 13 12 13 13 15 21 23 30 35 34 34 34 33 25 29
8 8 7 9 6 5 5 4 5 6 8 9 9 9 10 10 12 13 12 13 13 13 12 13 12 12 11 10 10 10 10 10 10 11 12 11 11 12 12 14 13 14 13 15 14 14 14 16 13 12 12 13 14 14 16 19 19 25 27 20 17 19
7 8 8 9 8 6 6 6 6 7 8 8 9 10 10 11 11 12 13 14 12 11 11 12 14 15 12 11 10 11 11 10 10 11 12 11 12 12 12 11 12 13 13 15 13 15 15 16 13 13 13 15 14 15 16 15 16 14 13 14 14 13
5 6 8 9 8 7 7 7 8 7 9 9 9 9 10 12 12 12 13 13 11 11 11 11 12 12 12 12 12 10 10 12 12 12 13 13 12 12 13 13 14 14 14 14 14 14 14 12 13 11 14 19 23 21 17 14 14 13 13 18 25 21
5 7 9 8 7 7 8 8 9 8 8 9 8 9 11 12 12 12 12 11 11 12 12 11 11 11 12 12 12 12 12 14 22 19 16 14 20 30 31 27 19 18 16 16 14 13 16 15 15 26 34 34 33 34 35 33 33 31 25 27 33 24
6 7 8 8 7 8 8 10 10 10 9 9 9 9 11 11 12 11 12 12 11 12 13 12 12 11 11 12 12 12 13 12 12 21 28 27 28 29 31 31 33 34 32 25 20 20 32 35 36 35 33 33 32 33 33 33 33 34 33 32 23 18
6 6 8 7 8 9 10 11 11 10 10 9 9 9 10 11 11 12 13 13 12 13 13 12 12 12 12 12 11 12 12 13 14 12 17 25 26 28 30 31 32 33 32 33 30 25 18 25 31 33 32 32 33 32 32 32 33 32 34 33 33 19
5 6 7 8 9 10 10 11 11 10 9 10 10 10 11 12 12 14 14 13 13 12 13 12 12 11 11 12 13 12 12 13 13 15 14 13 21 27 29 30 30 31 31 32 32 33 29 29 29 32 32 31 31 31 30 30 32 31 31 32 22 15
6 7 8 8 9 10 10 11 11 10 10 10 10 10 11 13 13 13 12 12 13 13 12 12 11 11 11 11 12 12 12 12 13 14 15 16 14 14 17 23 27 28 30 30 31 31 30 30 31 31 31 31 30 30 30 29 24 29 31 26 17 14
7 7 8 10 10 10 10 12 12 10 9 10 10 11 12 12 13 12 13 19 16 11 11 11 11 11 11 12 12 12 13 13 13 13 14 14 15 15 16 14 15 19 26 24 23 27 31 30 30 29 28 29 29 29 30 30 17 14 12 13 13 12
7 8 8 8 9 9 10 12 11 9 9 10 10 11 12 12 13 12 11 11 12 11 10 10 11 11 11 12 12 12 12 13 12 13 13 13 14 14 15 15 14 13 19 31 30 30 28 28 28 27 27 27 28 27 28 15 12 12 12 12 12 12
Wind_Direction
35 358 326 312 292 288 292 311 320 330 328 338 12 22 16 11 7 4 4 19 21 21 21 19 17 17 15 12 14 15 17 10 0 358 350 343 338 338 334 332 330 326 318 317 306 298 287 282 274 268 266 256 252 250 245 243 229 233 241 244 234 237
68 323 324 317 319 323 328 330 331 347 351 4 11 12 16 11 13 7 10 4 12 9 12 11 12 7 13 8 16 14 14 7 2 356 357 346 338 339 341 336 332 324 322 319 314 303 291 276 268 266 262 263 253 248 247 246 237 238 238 242 234 233
322 316 306 309 320 329 336 328 342 344 356 4 5 14 5 11 1 10 2 7 7 18 13 8 5 5 4 6 7 11 2 1 359 355 350 343 348 347 343 339 332 329 326 323 319 313 303 290 280 270 260 257 259 256 245 246 239 239 244 236 244 235
260 264 272 270 268 280 290 299 343 357 8 12 8 10 9 6 357 3 357 2 7 13 11 6 6 5 1 8 359 7 354 353 352 347 347 349 338 345 341 340 337 333 326 321 315 317 313 309 297 281 269 258 258 257 252 252 245 245 244 236 243 237
230 241 240 242 242 261 302 333 358 355 360 7 4 13 352 4 349 353 355 358 2 1 6 7 5 7 2 10 354 360 347 345 341 345 349 338 336 335 336 334 336 335 337 331 319 308 304 298 298 294 282 268 254 253 253 247 245 244 244 242 241 239
231 234 249 274 316 350 345 359 352 355 353 359 4 2 340 349 336 343 344 346 345 348 7 359 358 7 356 2 350 351 342 342 338 339 345 331 333 334 327 331 328 330 331 332 328 326 319 312 305 302 295 282 271 263 257 253 247 243 243 242 242 239
268 277 320 347 345 3 354 354 349 349 348 345 348 347 334 342 335 347 342 346 351 342 0 354 359 5 352 350 344 337 337 336 339 338 339 337 333 328 322 323 327 319 315 313 311 312 313 308 302 299 294 287 281 275 269 262 254 248 244 241 241 239
260 283 332 347 348 353 338 323 332 332 335 334 326 0 339 337 342 345 344 344 352 344 348 347 356 342 337 334 332 324 323 330 334 330 325 326 324 326 325 321 322 315 309 304 295 288 287 289 292 288 281 275 272 273 270 269 267 264 258 251 244 240
267 239 230 182 219 264 268 277 302 305 306 313 310 312 322 306 334 334 332 325 335 332 327 334 331 319 315 312 319 321 326 326 328 326 316 310 311 309 307 312 315 312 309 304 302 295 288 286 282 282 284 287 285 276 271 268 269 267 268 263 258 250
289 285 256 345 290 319 316 307 274 267 258 256 268 264 262 284 309 313 306 308 320 318 315 324 319 317 305 310 326 322 314 318 323 320 310 310 309 302 295 292 296 298 304 301 301 296 296 294 292 287 283 281 282 285 286 281 274 274 270 268 262 259
259 262 269 261 273 283 275 274 282 287 287 271 261 242 232 238 233 276 280 287 289 282 286 302 308 300 302 309 311 301 296 297 303 309 308 306 301 295 288 286 288 292 292 294 294 297 298 297 289 285 284 284 282 278 278 280 281 279 280 277 272 263
248 247 249 265 273 285 290 287 281 273 272 275 265 247 241 194 223 234 258 254 253 256 259 271 277 276 280 295 290 283 285 290 296 299 303 302 298 296 293 289 284 283 289 292 290 289 291 286 284 284 282 278 274 273 272 273 273 273 274 275 276 273
243 245 247 248 247 247 246 243 244 243 247 251 251 249 246 215 248 269 276 285 284 287 298 303 295 293 294 282 284 287 289 290 292 293 289 289 291 292 291 288 290 291 285 283 287 290 286 280 278 279 283 286 284 281 273 269 271 268 267 267 266 269
257 248 244 245 244 241 242 246 247 244 243 247 249 248 252 243 263 286 291 293 306 314 319 314 311 308 300 299 295 292 285 285 288 288 286 289 292 287 283 282 279 278 279 282 285 283 278 275 270 280 288 286 282 278 273 268 268 268 264 262 262 261
273 252 248 248 246 247 246 241 245 246 246 252 259 278 284 272 280 286 292 293 302 303 301 299 297 294 295 296 295 291 289 286 285 285 288 287 288 296 294 288 284 276 272 270 274 277 275 274 269 276 282 284 283 281 278 271 266 264 264 262 261 260
335 313 280 266 268 271 271 269 264 266 290 298 313 334 329 338 325 322 312 312 306 298 294 291 286 283 282 283 284 284 283 281 277 277 277 282 290 288 288 288 286 285 281 274 270 270 272 271 269 274 275 276 276 277 278 269 266 262 260 262 259 260
339 13 14 8 359 4 17 18 16 14 21 16 9 1 359 343 331 320 312 304 296 293 291 288 285 283 282 280 279 280 279 277 279 277 276 277 277 280 282 285 285 280 279 280 278 277 275 272 267 270 271 269 269 270 274 267 262 260 259 259 258 255
37 24 3 355 17 24 40 22 8 15 355 353 353 339 333 327 320 310 307 299 295 293 291 290 290 288 286 284 284 284 284 285 282 283 285 285 281 276 278 277 275 278 277 276 275 274 273 273 275 275 272 272 272 271 266 261 258 259 257 256 257 255
42 22 19 19 30 33 17 6 6 359 348 347 339 338 328 324 316 311 307 303 303 302 303 304 301 297 295 299 302 300 300 298 294 290 289 287 285 285 283 281 279 279 277 275 273 270 272 275 275 275 274 273 273 271 263 258 257 256 257 257 255 253
39 25 33 18 1 29 19 12 2 350 339 332 327 324 321 323 314 312 308 305 312 314 316 312 310 312 316 317 310 307 304 300 295 290 292 286 287 284 282 283 283 278 274 272 271 269 273 275 277 279 279 277 275 271 265 258 256 254 256 259 255 251
50 32 14 3 19 20 16 11 1 344 326 319 322 322 315 308 303 307 312 314 316 315 314 315 316 312 308 305 302 302 299 296 294 292 291 285 282 279 281 278 276 275 271 268 268 271 271 272 276 278 279 279 277 275 269 266 262 263 259 258 259 254
47 25 31 31 28 8 5 6 358 336 318 315 316 312 306 307 314 315 312 311 314 316 315 312 309 306 306 305 305 303 297 295 295 292 291 287 283 282 279 278 276 275 275 274 273 272 270 273 273 273 275 276 276 276 274 270 267 262 262 259 258 258
44 28 30 20 14 1 3 5 347 325 318 315 316 309 312 317 318 317 321 324 320 316 312 310 311 314 313 311 307 304 299 297 298 299 295 292 288 283 280 278 277 275 274 273 272 271 271 269 272 275 276 276 275 274 271 265 259 257 256 259 258 254
30 19 9 18 2 5 4 349 336 321 321 320 312 310 319 322 324 329 326 319 313 309 308 310 313 311 306 304 304 302 298 298 297 293 292 289 288 287 283 281 279 277 275 274 271 269 270 269 268 272 275 275 274 273 270 265 259 255 258 259 256 255
8 1 355 355 352 13 351 347 332 326 322 317 313 324 327 325 324 318 313 309 306 306 305 305 303 301 302 301 301 298 294 294 292 289 289 288 287 284 282 281 280 279 278 276 273 271 269 270 270 270 271 273 273 273 273 270 268 262 258 253 252 250
357 342 342 339 358 359 354 346 329 321 317 309 322 326 321 317 313 311 308 307 304 303 301 299 298 297 296 296 296 291 289 292 294 293 293 294 291 290 288 285 284 281 278 278 280 277 275 274 274 273 275 277 278 278 276 275 272 268 259 254 249 250
343 330 324 336 349 350 345 347 325 316 309 310 328 320 318 313 313 312 309 308 306 303 303 300 299 298 294 291 289 290 292 291 293 292 292 291 289 287 286 287 287 284 283 282 281 284 284 282 281 279 280 281 282 283 284 283 281 278 275 270 262 250
333 325 318 326 346 334 336 330 326 307 303 315 318 315 314 313 314 311 309 307 305 305 306 304 302 296 291 290 287 284 285 288 292 291 292 292 289 289 289 290 290 287 287 285 286 286 288 290 287 287 288 291 290 290 289 287 284 279 274 269 265 262
328 322 323 318 329 326 321 315 301 293 303 312 310 312 312 310 308 304 305 306 307 306 304 301 302 302 301 297 295 289 287 288 287 287 289 286 286 284 285 287 288 289 288 286 287 287 288 288 291 293 298 301 301 299 296 295 293 288 286 284 280 279
316 317 320 317 319 321 314 308 302 303 306 306 310 311 310 306 306 305 306 306 306 303 304 301 302 304 302 300 296 295 292 286 284 284 283 284 282 283 280 274 274 276 275 276 275 277 276 275 273 272 274 273 271 272 273 277 282 287 294 291 286 278
316 313 315 308 313 311 309 305 305 309 311 309 309 308 306 305 305 305 303 303 304 302 305 303 302 298 298 296 293 285 285 290 288 281 276 267 260 263 267 268 268 263 263 260 267 271 270 265 267 261 266 271 272 274 274 269 271 273 271 272 277 279
322 316 309 304 308 308 307 308 307 308 306 306 304 305 306 308 308 305 302 304 304 303 302 298 296 296 296 295 295 295 285 273 283 287 287 288 285 286 286 286 286 285 284 282 274 269 276 279 277 284 286 287 287 286 284 282 278 273 270 271 274 274
317 307 303 303 310 308 309 307 306 306 305 304 305 307 306 307 305 304 303 305 301 300 300 299 298 296 294 292 292 291 292 292 280 283 288 288 290 291 290 290 290 291 291 291 293 290 289 290 292 294 295 293 292 290 288 287 286 286 284 281 275 269
309 304 303 307 308 307 306 303 300 302 302 304 305 305 301 301 302 304 303 301 299 300 298 296 295 295 293 293 292 293 294 293 294 288 282 289 292 294 294 294 294 294 294 295 294 295 295 294 295 295 294 293 292 291 289 288 287 285 283 280 281 276
303 301 301 302 303 303 301 298 298 301 302 304 305 304 302 303 304 300 297 297 298 297 295 295 294 293 294 295 296 295 293 295 297 297 300 290 290 293 294 294 295 295 296 296 296 296 295 296 297 296 296 296 294 291 289 287 286 284 282 281 279 270
298 296 297 298 297 297 296 295 296 300 301 303 304 304 303 304 299 294 293 296 296 296 295 294 293 294 294 291 292 291 293 292 293 295 295 300 301 295 289 290 292 294 296 296 296 297 297 297 297 297 297 296 295 293 291 288 286 283 279 275 271 269
294 293 293 296 297 296 295 292 294 298 302 306 306 306 305 301 297 293 290 289 293 291 290 290 290 292 291 292 291 291 291 290 290 289 292 294 298 299 300 302 298 294 296 297 297 297 297 299 300 301 300 299 297 296 294 297 298 293 289 278 266 265
291 292 294 295 293 290 291 292 298 305 306 307 307 308 306 304 299 294 291 293 292 292 289 289 290 290 290 290 288 286 284 286 287 290 289 290 289 292 295 295 293 293 297 299 299 300 301 301 303 303 303 301 300 299 300 299 290 291 283 272 260 254